IMS-1

Satellite information

Favourite Embed

Satellite Type and Status

PAYLOADIN ORBIT

Key statistics

Satellite IMS-1 at a glance.

Uptime

6280

Days in orbit

Revolutions

≈ 15.0

Per day

Orbit

SSO

Sun Synchronous Orbit

Inclination

97.9

Latest

Satellite identification and parameters

Extended collection of information and parameters for IMS-1.

Object identification

Identified? True

Debris? False

Object name: IMS-1

International designator: 2008-021D

Object number (NORAD): 32786

Object ID (CCSDS): 32786

Country: INDIA (IND)

Current information (Y/N): Y

RCS size: MEDIUM

Orbital parameters

Period: 95.987 minutes

Inclination: 97.8884 deg

SMA: 6944.389 km

Apoapsis: 568.541 km

Periapsis: 563.967 km

RAAN: 162.5885 deg

Eccentricy: 0.0003293

Argument of periapsis: 205.0091 deg

Mean anomaly: 155.0973 deg

Mean motion: 15.00208745 rev/day

Mean motion (dot): 0.00003834 rev/day2

B* drag term: 0.00031151 1/REarth

Two-line elements (TLE)

Creation date: July 8, 2025, 2:27 a.m.

Reference frame: TEME

Reference center: EARTH

Epoch: July 7, 2025, 9:03 p.m. UTC

TLE line 0: 0 IMS-1

TLE line 1: 1 32786U 08021D 25188.87710055 .00003834 00000-0 31151-3 0 9996

TLE line 2: 2 32786 97.8884 162.5885 0003293 205.0091 155.0973 15.00208745931501

Live tracking on map

Real-time ground track for satellite IMS-1.

In-orbit conjunctions

There are no conjunctions computed for IMS-1, at the moment. Check back to stay up to date, as we update our databases every day.

Go to all conjunctions

Associated space launch

Indian Earth observation satellite. Launched alongside 9 nanosatellites.

IMS-1 was lifted into orbit during the mission ‘PSLV | Cartosat 2A’, on board a PSLV space rocket.

The launch took place on April 28, 2008, 3:53 a.m. from Satish Dhawan Space Centre Second Launch Pad.

For more information about the launch, click the button.

Launch to space PSLV | Cartosat 2A
PSLV | Cartosat 2A

Agency: N/A

Status: Launch Successful

Launch date: April 28, 2008, 3:53 a.m. UTC

Rocket: PSLV

Launch pad: Satish Dhawan Space Centre Second Launch Pad

Location: Satish Dhawan Space Centre, India

...

Latest news about this satellite

There are no fresh news available about this satellite. Check back as we update our databases every day.


Newsletter sign-up

Weekly statistics, charts and insights to help you stay on top of the space industry.